Location: Eichfeld
(49.8432°N, 10.3013°E)
Time: 05:43:57
(UTC+00:00)

Daily predictions for brighter satellites

Satellite Brightness Start Highest point End
(mag) Time Altitude Azimuth Time Altitude Azimuth Time Altitude Azimuth
Cosmos 2227 Rocket 2.7 00:02:08 10° NW 00:07:27 42° WSW 00:09:27 31° SSW
Cosmos 1844 Rocket 4.3 00:03:26 10° NNW 00:08:30 32° NE 00:13:30 10° ESE
GEOS 3 Rocket 4.4 00:07:44 10° NE 00:12:49 51° NW 00:17:31 12° WSW
CZ-2D R/B 4.5 00:14:16 10° ENE 00:16:17 12° E 00:18:18 10° ESE
Cosmos 1238 Rocket 4.1 00:12:28 10° N 00:17:31 48° ENE 00:20:49 19° SE
IDEFIX/ARIANE 42P 3.9 00:13:54 10° NNE 00:18:25 30° E 00:21:28 17° SE
Landsat 4 3.8 00:18:25 38° ESE 00:18:58 44° ENE 00:21:40 10° N
Cosmos 1441 Rocket 4.4 00:20:22 24° W 00:21:18 28° WNW 00:24:22 10° N
Cosmos 2360 Rocket 4.4 00:22:55 10° ESE 00:25:13 13° E 00:27:31 10° ENE
H-2A R/B 4.4 00:23:33 10° NE 00:26:06 15° E 00:28:39 10° SE
Cosmos 2221 2.7 00:22:10 10° N 00:26:25 65° ENE 00:28:33 28° SSE
Cosmos 1315 Rocket 4.2 00:26:40 10° NW 00:29:41 22° W 00:30:17 21° WSW
SeaSat 1 4.1 00:25:58 10° ESE 00:30:19 33° NE 00:34:42 10° NNW
Okean 1 3.0 00:27:08 10° NNW 00:30:52 83° W 00:32:02 42° S
Cosmos 1125 Rocket 3.9 00:30:24 25° SW 00:33:20 56° WNW 00:38:31 10° NNE
Cosmos 1812 Rocket 3.5 00:29:00 10° N 00:33:23 87° W 00:35:20 33° S
Geosat 4.4 00:28:36 10° NNE 00:33:31 56° NW 00:36:37 22° SW
SL-23 DEB 4.2 00:36:43 32° SE 00:36:43 32° SE 00:39:28 10° E
Nadezhda 1 Rocket 3.9 00:30:52 10° NNW 00:37:05 78° W 00:40:50 25° S
Cosmos 1346 Rocket 4.2 00:35:27 19° SE 00:37:09 27° E 00:40:20 10° NNE
Cosmos 2150 Rocket 4.1 00:36:24 29° SSW 00:39:13 78° ESE 00:44:40 10° NNE
Meteor 2-6 Rocket 4.3 00:34:43 10° NNW 00:40:30 74° W 00:44:03 25° S
CENTAUR R/B 3.8 00:37:30 16° SSE 00:40:36 25° ESE 00:45:46 10° ENE
H-2A R/B 2.4 00:41:17 38° SSW 00:42:27 57° WSW 00:46:20 10° NNW
Okean 1-7 Rocket 3.6 00:42:59 31° S 00:45:07 78° E 00:49:40 10° NNE
Cosmos 2322 Rocket 3.9 00:43:02 11° SSE 00:46:52 22° ESE 00:51:06 10° NE
Cosmos 1745 Rocket 4.0 00:44:17 25° S 00:48:11 86° W 00:54:35 10° N
Cosmos 1825 Rocket 4.0 00:46:00 25° SSE 00:48:17 54° E 00:52:34 10° NNE
ADEOS II 4.3 00:46:26 10° NE 00:49:51 17° E 00:53:13 10° SE
ATLAS 5 CENTAUR R/B 2.3 00:46:43 10° NW 00:50:57 58° NE 00:56:12 10° ESE
MOZ.5/SAFIR/RUBIN 5/SL-8 4.1 00:52:02 14° SSE 00:55:55 63° ENE 01:00:35 10° N
Cosmos 2263 Rocket 3.0 00:51:30 10° NW 00:56:30 33° WSW 00:58:42 25° SW
CZ-2C R/B 3.4 00:56:50 10° N 01:01:24 47° WNW 01:04:01 23° SW
Cosmos 1709 Rocket 4.0 00:57:17 23° S 01:01:31 89° E 01:07:51 10° N
USA 32 4.4 01:00:07 25° SW 01:02:57 53° W 01:08:04 10° N
Meteor 1-27 Rocket 4.2 00:57:16 10° N 01:03:11 64° ENE 01:09:02 10° SSE
Cosmos 2082 4.0 00:57:51 10° NW 01:03:16 46° WSW 01:06:25 23° S
Cosmos 2369 3.8 01:01:32 24° SW 01:05:05 73° WNW 01:10:46 10° NNE
MSX 4.0 01:00:41 10° NNE 01:06:25 69° ESE 01:10:26 20° S
Cosmos 2181 Rocket 4.4 01:01:45 10° N 01:07:52 62° ENE 01:13:55 10° SSE
Cosmos 1602 Rocket 4.0 01:07:35 26° SW 01:09:40 47° WNW 01:13:53 10° N
Cosmos 2298 Rocket 4.2 01:07:44 23° SW 01:11:00 64° WNW 01:16:18 10° NNE
SL-16 R/B 4.5 01:07:20 10° ESE 01:12:35 29° ENE 01:17:50 10° N
FENGYUN 3A 4.2 01:09:12 10° NNE 01:14:31 55° E 01:18:43 16° S
SL-16 R/B 2.5 01:13:38 21° S 01:17:25 59° ESE 01:23:00 10° NE
Cosmos 2219 4.2 01:13:42 10° NW 01:18:27 28° WSW 01:20:47 21° SW
Cosmos 2333 Rocket 3.1 01:15:34 15° S 01:19:46 40° ESE 01:25:02 10° NE
USA 290 4.4 01:18:09 10° WNW 01:19:33 14° W 01:19:33 14° W
Meteor 1-10 Rocket 4.3 01:15:13 10° NNW 01:20:55 66° W 01:25:25 17° S
USA 276 3.1 01:22:20 24° SSE 01:22:20 24° SSE 01:24:31 10° E
Cosmos 1842 Rocket 3.9 01:18:20 10° N 01:22:44 65° ENE 01:26:56 11° SSE
BREEZE M DEB (TANK) 2.4 01:21:29 13° W 01:23:34 57° SSW 01:28:18 10° ESE
BREEZE-M DEB 4.0 01:10:27 10° W 01:24:28 82° S 01:28:13 10° ESE
ATLAS 2AS CENTAUR R/B 3.4 01:19:20 10° NW 01:25:10 32° WSW 01:29:12 18° SSW
Meteor 2-4 Rocket 4.1 01:21:13 10° N 01:26:33 59° ENE 01:31:48 10° SSE
Cosmos 44 Rocket 3.6 01:25:06 21° SSW 01:27:59 53° ESE 01:32:36 10° NE
Cosmos 1707 3.0 01:26:15 10° N 01:29:28 51° ENE 01:32:32 11° SSE
Cosmos 921 Rocket 4.2 01:25:51 10° NW 01:29:33 27° W 01:31:10 21° SW
Cosmos 1743 2.3 01:28:38 27° SSW 01:30:20 78° W 01:33:41 10° N
Cosmos 1980 Rocket 3.3 01:25:56 12° WSW 01:30:34 35° NW 01:35:43 10° NNE
NPP 3.7 01:28:02 10° NNE 01:33:28 82° WNW 01:37:32 18° SSW
Meteor 1-20 Rocket 4.3 01:33:05 19° SSW 01:37:22 71° WNW 01:43:06 10° N
Cosmos 2151 3.9 01:35:22 20° SW 01:37:41 35° WNW 01:41:30 10° N
Lacrosse 5 rocket 3.3 01:36:37 10° W 01:37:12 12° W 01:37:12 12° W
KORONAS-FOTON 3.5 01:35:42 10° N 01:39:16 87° ENE 01:42:14 14° S
Cosmos 1023 Rocket 4.4 01:34:32 10° NNW 01:39:41 70° WSW 01:44:50 10° SSE
CZ-2C R/B 4.3 01:37:53 15° WSW 01:40:28 20° W 01:44:29 10° NW
Cosmos 1140 Rocket 3.4 01:36:37 10° NNW 01:41:46 71° WSW 01:46:54 10° SSE
Resurs 1-4 Rocket 2.4 01:38:17 10° NNE 01:43:35 67° ESE 01:48:25 12° S
Cosmos 1842 2.9 01:45:22 10° N 01:48:47 82° E 01:52:08 10° SSE
Cosmos 1076 Rocket 3.6 01:46:03 19° SSW 01:49:04 64° WNW 01:53:17 10° N
Cosmos 1844 Rocket 2.8 01:47:10 10° NW 01:52:39 55° WSW 01:58:05 10° S
SJ 16-02 4.3 01:49:54 10° N 01:52:58 19° NE 01:56:03 10° E
Cosmos 407 Rocket 3.5 01:51:26 10° NNW 01:56:43 88° ENE 02:02:01 10° SSE
Cosmos 1844 3.8 01:51:26 10° NW 01:57:00 56° WSW 02:02:35 10° S
CZ-2D R/B 2.2 01:51:55 10° NNE 01:57:10 78° ESE 02:02:07 11° SSW
IDEFIX/ARIANE 42P 3.2 01:53:08 10° N 01:58:04 45° WNW 02:02:09 14° SW
Cosmos 1151 Rocket 3.9 01:54:35 10° N 01:58:49 50° ENE 02:02:58 10° SSE
Cosmos 2184 Rocket 4.1 01:54:21 10° S 02:00:43 83° E 02:07:09 10° N
EP 1 4.4 01:58:10 10° NW 02:00:43 52° SW 02:03:38 10° SSE
H-2A R/B 2.1 01:57:43 10° N 02:01:55 66° WNW 02:05:29 14° SSW
Cosmos 2221 4.5 02:00:40 10° NW 02:02:58 14° W 02:04:55 11° WSW
Cosmos 1953 Rocket 4.2 02:04:16 15° SW 02:07:31 41° WNW 02:11:37 10° N
SeaSat 1 2.7 02:02:50 10° S 02:07:34 49° WSW 02:12:20 10° NW
ATLAS CENTAUR R/B 3.6 02:05:34 10° SE 02:07:34 14° ESE 02:09:37 10° E
Cosmos 2360 Rocket 2.3 02:03:04 12° SSW 02:08:11 74° ESE 02:13:48 10° NNE
Cosmos 1346 Rocket 4.0 02:09:59 13° WSW 02:12:30 25° WNW 02:15:38 10° N
Cosmos 2278 4.0 02:08:06 13° SW 02:13:04 61° WNW 02:18:41 10° NNE
Cosmos 2154 Rocket 4.1 02:06:51 10° S 02:13:07 88° ESE 02:19:29 10° N
ARIANE 6 FM1 Upper Stage 4.0 02:10:47 10° S 02:14:15 29° ESE 02:17:44 10° ENE
Cosmos 1733 3.5 02:14:22 15° SW 02:16:24 33° WNW 02:19:10 10° N
Cosmos 2219 Rocket 2.7 02:17:25 10° S 02:22:53 57° ESE 02:28:21 10° NE
H-2A R/B 3.2 02:20:21 10° NNE 02:24:57 38° E 02:29:29 10° SSE
Cosmos 2074 Rocket 4.1 02:19:50 10° SSW 02:25:59 66° WNW 02:32:13 10° N
Cosmos 405 Rocket 3.6 02:26:04 10° SSE 02:29:05 38° E 02:32:08 10° NNE
ADEOS II 2.1 02:24:46 10° NNE 02:30:01 79° WNW 02:35:15 10° SSW
CENTAUR R/B 2.6 02:24:36 10° SW 02:30:14 78° NW 02:37:33 10° NE
Cosmos 2322 Rocket 2.3 02:24:50 11° SW 02:30:21 70° WNW 02:36:00 10° NNE
Cosmos 1954 Rocket 4.4 02:25:18 10° NNW 02:30:29 70° ENE 02:35:41 10° SSE
ALOS 2.3 02:28:00 10° N 02:32:35 71° WNW 02:37:07 10° SSW
ATLAS 5 CENTAUR R/B 2.7 02:29:41 10° WNW 02:33:42 29° WSW 02:38:28 10° S
Meteor 2-13 Rocket 4.5 02:28:35 10° NNW 02:34:41 72° W 02:40:47 10° S
Meteor 1-28 Rocket 3.4 02:32:40 10° SSE 02:35:59 65° ENE 02:39:19 10° N
Meteor 1-18 Rocket 4.3 02:33:16 10° NNW 02:38:43 59° W 02:44:09 10° S
Cosmos 2251 Rocket 3.5 02:34:05 10° NNW 02:39:22 67° WSW 02:44:33 10° S
Lacrosse 4 Rocket 4.1 02:38:53 10° SE 02:40:15 11° ESE 02:41:39 10° E
NOSS 3-2 (A) 3.3 02:38:01 10° SSW 02:43:04 72° SE 02:49:11 10° NE
DMSP B5D2-2 4.2 02:37:58 10° S 02:43:08 59° W 02:48:18 10° NNW
Envisat 3.1 02:38:44 10° N 02:43:47 70° WNW 02:48:49 10° SSW
Cosmos 1420 Rocket 4.1 02:40:17 10° SSW 02:45:32 81° ESE 02:50:48 10° NNE
SL-23 DEB 3.8 02:43:59 10° W 02:47:08 70° N 02:51:12 10° E
Cosmos 2278 Rocket 3.7 02:46:28 10° NNW 02:51:53 43° NE 02:57:15 10° ESE
